Wind_Speed
8 12 17 15 15 17 13 12 11 12 6 8 13 14 13 12 15 16 17 19 19 20 16 16 17 25 27 29 28 27 27 28 29 34 36 38 40 42 43 45 48 48 46 44
8 12 6 9 10 13 13 13 14 5 8 11 14 17 18 15 13 13 15 17 20 18 19 15 16 19 24 26 24 25 28 30 32 36 38 41 42 45 47 48 47 50 52 51
12 3 3 5 8 11 12 13 8 10 7 13 19 23 27 17 11 11 12 15 17 19 17 16 14 18 23 25 25 27 30 32 35 38 41 43 45 48 49 50 53 51 48 48
7 5 5 6 9 8 12 12 10 11 14 18 7 20 10 18 12 8 11 14 16 16 14 17 15 20 24 26 27 30 33 36 39 42 45 47 49 53 55 57 55 49 48 49
0 4 6 8 7 6 11 5 10 14 18 21 23 16 21 15 12 9 11 13 14 14 16 15 14 16 24 26 30 35 37 40 43 45 47 49 53 54 57 54 51 52 51 48
5 7 7 8 7 10 12 12 16 18 21 22 25 22 12 15 10 10 11 11 13 14 13 14 15 24 26 28 28 33 38 42 44 47 50 55 56 58 54 52 52 53 53 52
5 8 7 8 11 11 11 13 21 17 17 11 4 7 11 3 6 4 11 12 15 14 14 14 14 14 16 20 23 31 31 41 45 49 53 56 57 53 52 53 54 53 50 39
15 6 5 3 8 12 7 8 14 15 11 18 3 11 4 3 1 2 5 10 14 15 15 16 17 19 19 21 27 24 28 38 46 52 55 50 48 50 52 53 52 36 32 32
16 6 3 5 6 7 5 11 7 12 20 23 22 6 3 4 3 2 2 6 10 13 16 18 20 22 24 30 34 30 34 42 44 52 45 48 51 49 52 45 41 34 29 26
11 14 11 6 8 11 11 12 13 14 11 13 15 18 13 5 3 3 7 6 8 12 15 18 22 21 23 27 23 32 36 37 50 50 43 48 51 51 46 39 30 25 26 24
10 13 12 9 13 11 8 11 9 8 13 13 11 2 4 3 4 7 9 12 12 14 16 18 21 21 25 29 41 42 40 46 51 53 52 54 54 48 30 28 25 27 23 26
6 8 15 6 9 11 14 19 16 15 14 16 13 21 4 3 7 10 12 12 12 18 20 22 25 29 28 28 28 32 44 51 53 53 55 54 35 26 28 25 24 28 26 22
5 8 13 18 9 7 8 8 8 10 11 15 14 12 3 4 10 14 14 14 16 20 23 25 26 27 27 34 47 40 48 48 52 53 51 41 35 25 23 27 28 26 20 25
12 12 15 18 19 9 11 14 12 12 13 16 17 17 11 15 11 12 15 18 21 23 26 26 26 28 30 33 46 44 45 53 51 47 38 28 24 23 22 25 24 21 21 19
8 13 14 18 16 16 18 18 17 17 17 17 18 16 17 12 14 18 18 24 27 27 24 27 30 33 34 38 44 49 47 48 39 33 24 19 21 21 22 19 17 17 15 12
10 12 11 16 17 18 17 17 17 15 14 16 13 14 11 11 14 20 24 26 24 20 27 31 36 36 50 52 47 41 38 33 27 19 15 17 19 17 13 13 13 16 16 15
13 12 12 17 12 13 16 9 9 7 7 10 11 11 14 16 19 24 25 19 22 26 32 40 46 52 48 46 36 27 24 21 14 14 16 14 13 14 15 14 14 14 14 13
12 11 12 16 13 9 6 1 3 6 7 9 9 12 12 18 21 23 22 24 28 37 44 47 49 40 39 27 12 13 12 9 12 14 11 14 13 13 12 11 12 12 14 14
11 12 9 4 9 14 9 0 2 3 8 6 7 11 19 21 21 12 21 32 38 41 45 46 35 29 24 15 10 8 10 12 11 13 13 11 13 12 9 12 10 11 12 12
7 11 12 9 9 7 6 2 4 8 6 3 9 17 21 21 19 20 31 32 40 40 43 32 25 21 15 14 13 12 12 14 13 12 8 8 9 7 9 10 7 10 10 9
3 6 13 14 10 6 2 3 12 6 3 12 18 18 20 21 21 27 28 31 41 43 32 22 17 15 14 13 12 13 15 13 12 12 10 7 8 7 7 8 7 7 9 9
8 5 8 10 14 8 3 4 4 9 17 21 15 18 24 21 23 25 28 39 39 31 18 13 12 14 11 11 12 11 11 8 9 9 8 9 8 6 6 8 6 7 8 10
6 7 7 4 4 4 5 8 11 14 14 13 16 18 20 26 28 32 38 38 27 17 11 10 12 10 9 9 9 9 6 8 7 6 8 7 7 7 6 5 6 8 8 9
7 12 8 8 5 8 10 10 8 11 13 14 16 20 28 33 36 39 35 21 13 10 7 9 10 10 12 12 11 10 8 6 8 9 9 7 8 11 10 8 10 10 9 12
11 11 6 8 10 7 4 9 13 13 14 17 24 30 34 37 36 29 15 11 9 4 6 9 9 13 13 15 14 12 11 10 9 10 10 7 9 12 12 10 11 11 12 12
11 5 5 3 7 4 8 16 17 18 22 26 29 33 36 33 21 11 9 6 5 3 6 9 13 13 17 16 13 10 10 9 10 11 11 10 1 7 12 9 13 13 13 11
Wind_Direction
257 234 234 242 240 251 276 270 259 217 206 229 239 243 255 259 254 247 242 235 229 226 226 232 236 259 265 269 274 280 287 291 296 304 309 309 310 309 308 308 308 308 308 305
239 238 236 239 251 243 250 250 246 201 244 242 256 252 252 253 249 243 238 227 220 219 215 230 245 258 266 272 275 280 287 294 303 309 310 306 307 308 311 313 313 312 308 305
259 350 226 247 244 236 237 249 255 252 231 260 257 262 254 249 236 257 231 220 215 214 221 228 237 255 267 271 278 287 295 299 300 303 304 306 307 309 310 311 311 310 308 306
261 256 247 239 241 239 277 227 257 268 265 273 214 280 263 225 229 240 214 211 213 217 212 235 239 259 265 277 289 300 296 293 293 299 305 306 310 314 314 312 312 310 308 306
288 255 242 243 256 225 281 270 269 270 270 277 269 248 292 197 226 231 213 214 214 213 221 234 242 252 275 291 297 293 292 290 293 300 304 309 311 313 313 312 310 311 309 309
278 257 241 260 266 259 271 282 274 265 260 254 259 251 243 214 223 254 239 230 221 230 229 230 245 271 290 293 290 289 293 295 301 305 310 311 311 313 313 311 311 311 309 305
222 244 250 251 264 259 262 267 269 272 236 270 328 252 276 267 263 289 251 240 234 243 246 251 267 285 284 291 289 291 297 300 305 308 310 311 311 312 312 312 310 307 306 305
282 232 222 246 263 283 271 300 292 305 314 314 277 258 157 128 199 253 224 260 246 243 256 268 269 274 285 289 284 299 298 300 305 305 308 311 313 312 312 311 310 310 299 299
290 286 225 262 264 258 277 262 298 300 285 267 269 233 148 110 63 29 265 236 236 256 271 274 280 287 288 286 288 291 302 306 308 307 313 314 314 317 314 313 310 306 300 299
260 283 252 248 271 259 255 286 298 271 290 286 301 319 65 89 63 316 326 315 288 295 273 284 293 287 288 287 298 308 296 301 303 312 315 316 320 317 314 309 311 307 306 307
262 259 269 243 258 257 243 269 260 277 285 297 297 31 49 51 330 305 304 290 292 291 291 293 288 302 305 303 301 303 297 288 298 304 313 317 315 313 310 310 306 310 307 307
272 258 273 253 250 257 269 275 280 283 282 272 299 276 289 1 332 322 315 307 303 304 305 300 300 302 304 297 291 291 289 291 299 308 311 313 315 309 306 300 309 312 305 309
241 258 275 277 251 288 270 257 266 274 277 271 282 281 223 320 321 325 318 318 312 309 307 306 305 300 297 300 294 292 297 296 302 308 312 314 312 307 305 310 314 312 307 309
253 257 263 273 286 296 272 276 272 270 276 280 276 301 275 313 325 323 311 311 310 308 308 305 306 308 304 292 291 295 291 292 306 311 311 306 316 313 309 317 321 323 318 318
257 258 265 273 275 280 278 277 272 269 268 267 284 290 295 308 310 315 314 311 309 312 308 309 305 297 300 286 285 288 296 305 309 310 309 310 313 319 324 333 344 344 348 358
269 270 271 277 277 273 279 278 271 267 267 274 278 290 282 309 313 314 312 313 311 316 311 309 306 311 309 307 303 301 300 309 311 319 329 319 325 330 346 350 355 1 6 11
266 274 272 278 290 286 280 283 270 260 268 273 281 302 316 310 313 313 313 301 300 312 311 314 315 317 316 311 303 302 303 312 330 330 328 336 356 356 348 360 15 7 358 353
246 266 270 281 284 285 234 200 209 290 276 277 282 300 306 314 315 317 289 298 308 312 315 319 320 323 327 331 334 308 319 346 337 335 2 3 10 6 28 23 19 13 11 16
246 238 260 250 267 265 229 140 129 325 295 297 286 301 311 316 318 286 319 305 312 314 320 321 323 327 341 360 16 7 7 348 11 12 27 27 42 34 25 17 16 18 28 30
238 217 233 255 262 303 175 200 331 322 266 3 329 318 319 320 312 296 306 319 311 323 322 323 331 340 344 4 13 9 8 32 17 14 48 21 31 23 21 21 35 28 25 26
217 231 232 244 248 270 275 300 318 296 292 314 319 323 306 305 303 312 310 310 320 323 325 330 341 2 4 2 14 38 29 25 35 32 40 18 2 2 25 25 34 29 16 11
266 254 251 246 247 246 3 342 321 264 281 308 321 305 301 310 316 312 313 311 321 321 330 347 0 350 357 24 25 18 55 39 31 18 3 5 21 32 13 13 7 354 359 359
243 254 259 309 286 292 303 301 306 311 323 316 306 308 315 317 314 313 314 317 322 331 345 356 347 5 30 9 17 56 49 42 34 350 334 347 22 20 29 349 342 327 333 344
275 271 252 286 282 298 307 307 307 321 310 315 317 314 314 312 312 316 317 322 334 343 9 348 354 29 33 41 39 68 83 50 18 356 0 4 15 19 18 343 340 345 321 333
250 256 270 262 286 312 316 290 316 323 315 313 313 313 308 312 315 317 324 340 334 29 358 359 42 55 56 52 54 54 42 41 16 0 355 4 47 333 348 5 358 349 342 340
260 237 225 229 244 280 284 292 322 321 315 316 315 310 314 313 318 328 348 357 90 42 15 66 68 60 51 43 34 29 9 351 349 338 332 311 355 308 325 348 353 358 357 9
Height
3177 3178 3175 3174 3174 3173 3172 3171 3170 3172 3175 3178 3176 3176 3176 3176 3176 3178 3179 3180 3179 3177 3175 3170 3169 3167 3167 3167 3166 3165 3163 3162 3159 3156 3152 3149 3146 3142 3139 3134 3128 3122 3117 3112
3177 3173 3171 3171 3172 3172 3173 3172 3170 3171 3175 3177 3175 3175 3173 3172 3172 3173 3174 3174 3175 3173 3170 3168 3166 3165 3165 3164 3163 3161 3160 3157 3154 3150 3146 3142 3138 3134 3129 3124 3119 3114 3108 3103
3173 3172 3170 3173 3172 3172 3171 3170 3169 3172 3173 3174 3171 3169 3167 3167 3166 3166 3167 3169 3170 3169 3167 3167 3165 3162 3162 3160 3160 3158 3155 3151 3147 3144 3140 3135 3131 3126 3121 3116 3110 3103 3097 3093
3172 3171 3173 3173 3171 3172 3170 3168 3171 3172 3173 3168 3166 3162 3161 3162 3163 3161 3163 3165 3166 3165 3166 3166 3164 3160 3158 3157 3155 3152 3148 3145 3141 3136 3133 3127 3121 3115 3110 3104 3098 3092 3087 3081
3172 3172 3172 3172 3171 3171 3171 3171 3171 3171 3169 3166 3162 3159 3155 3156 3160 3161 3160 3162 3164 3165 3165 3164 3161 3158 3155 3154 3150 3145 3142 3138 3134 3130 3125 3119 3113 3108 3100 3094 3087 3081 3075 3069
3171 3172 3172 3171 3170 3171 3171 3171 3169 3166 3162 3156 3151 3151 3150 3150 3157 3158 3160 3162 3163 3162 3162 3160 3156 3153 3152 3149 3144 3139 3134 3129 3126 3121 3115 3109 3103 3096 3090 3083 3077 3070 3064 3058
3169 3168 3170 3170 3170 3169 3170 3169 3161 3154 3152 3154 3153 3154 3153 3154 3155 3158 3158 3160 3160 3161 3160 3157 3155 3153 3150 3145 3140 3133 3129 3123 3117 3112 3106 3100 3094 3087 3080 3073 3066 3059 3053 3048
3167 3166 3168 3168 3170 3167 3166 3167 3162 3155 3148 3146 3148 3147 3147 3150 3152 3156 3157 3159 3158 3156 3158 3156 3153 3149 3145 3142 3134 3129 3122 3114 3109 3104 3098 3091 3085 3079 3072 3064 3056 3048 3043 3039
3167 3164 3166 3166 3168 3169 3166 3166 3164 3162 3160 3153 3146 3144 3146 3147 3150 3153 3155 3155 3156 3154 3154 3152 3149 3145 3140 3134 3129 3122 3116 3109 3103 3096 3089 3083 3076 3069 3061 3053 3047 3042 3037 3033
3168 3166 3164 3163 3165 3166 3166 3164 3164 3159 3155 3150 3142 3143 3145 3150 3152 3153 3154 3154 3153 3152 3149 3147 3144 3138 3133 3124 3120 3116 3110 3103 3095 3090 3082 3074 3067 3060 3052 3045 3040 3036 3032 3028
3167 3166 3164 3163 3162 3161 3162 3160 3161 3160 3161 3154 3150 3146 3151 3151 3151 3151 3152 3150 3149 3147 3146 3144 3139 3133 3128 3124 3117 3111 3104 3095 3090 3083 3074 3067 3059 3052 3045 3040 3036 3032 3028 3024
3164 3163 3159 3158 3159 3159 3160 3160 3159 3159 3158 3153 3152 3152 3148 3148 3149 3148 3148 3147 3146 3143 3141 3138 3135 3130 3125 3116 3106 3101 3095 3089 3083 3075 3066 3057 3050 3045 3040 3035 3032 3027 3022 3019
3161 3162 3159 3156 3157 3157 3156 3157 3158 3158 3158 3156 3154 3149 3148 3148 3147 3146 3145 3144 3142 3139 3136 3132 3128 3122 3112 3106 3098 3092 3086 3078 3072 3066 3056 3048 3043 3039 3035 3031 3027 3022 3018 3016
3158 3159 3159 3156 3152 3155 3155 3153 3154 3155 3155 3152 3147 3147 3147 3145 3143 3144 3143 3141 3138 3134 3130 3125 3119 3113 3108 3098 3089 3082 3075 3068 3063 3055 3047 3043 3038 3034 3031 3027 3022 3018 3015 3012
3157 3156 3156 3153 3152 3152 3152 3151 3150 3150 3150 3149 3147 3146 3146 3142 3142 3141 3139 3136 3132 3128 3121 3117 3110 3102 3096 3086 3077 3071 3063 3059 3052 3046 3041 3039 3035 3031 3028 3024 3020 3017 3014 3011
3155 3154 3152 3151 3149 3147 3147 3147 3146 3146 3146 3146 3146 3145 3141 3141 3140 3138 3134 3130 3125 3119 3114 3107 3097 3089 3078 3068 3061 3056 3053 3050 3045 3041 3038 3036 3032 3029 3026 3023 3020 3018 3015 3013
3153 3152 3150 3147 3146 3145 3144 3141 3140 3142 3144 3144 3144 3143 3141 3139 3136 3132 3127 3122 3117 3112 3104 3094 3085 3075 3064 3054 3047 3047 3046 3044 3041 3039 3036 3033 3030 3028 3026 3024 3021 3019 3017 3014
3149 3150 3149 3147 3145 3143 3140 3139 3141 3142 3141 3141 3142 3141 3139 3136 3132 3128 3118 3113 3108 3102 3094 3085 3075 3067 3057 3047 3042 3043 3043 3041 3040 3037 3035 3034 3032 3029 3028 3025 3023 3021 3018 3015
3144 3147 3147 3147 3145 3141 3138 3138 3140 3140 3141 3138 3139 3137 3135 3131 3127 3124 3113 3108 3102 3094 3086 3078 3070 3063 3056 3049 3045 3043 3042 3041 3039 3038 3037 3035 3033 3032 3029 3027 3024 3022 3019 3017
3141 3142 3145 3145 3142 3135 3137 3137 3136 3137 3137 3134 3134 3133 3129 3125 3121 3118 3110 3104 3093 3089 3080 3072 3067 3061 3056 3052 3048 3046 3044 3042 3041 3039 3038 3036 3035 3033 3030 3028 3026 3024 3021 3019
3140 3141 3141 3140 3140 3138 3136 3135 3134 3136 3139 3132 3130 3129 3124 3120 3116 3111 3105 3097 3087 3080 3074 3069 3065 3061 3057 3053 3049 3047 3046 3044 3043 3041 3040 3038 3035 3033 3031 3029 3027 3025 3023 3020
3140 3139 3137 3137 3136 3136 3134 3135 3136 3133 3130 3128 3127 3124 3117 3115 3110 3105 3098 3087 3082 3076 3071 3067 3064 3060 3057 3054 3051 3050 3048 3047 3045 3043 3041 3039 3036 3033 3033 3030 3028 3026 3023 3021
3139 3137 3137 3137 3136 3134 3132 3132 3130 3128 3126 3126 3122 3118 3112 3107 3102 3096 3088 3082 3076 3072 3070 3067 3063 3060 3057 3055 3053 3052 3050 3049 3047 3045 3042 3040 3038 3036 3034 3032 3029 3026 3024 3021
3135 3133 3135 3135 3135 3133 3131 3129 3127 3125 3123 3120 3117 3112 3106 3101 3094 3088 3082 3076 3074 3071 3069 3066 3063 3060 3058 3056 3054 3052 3051 3050 3048 3046 3044 3042 3039 3037 3035 3032 3029 3027 3025 3022
3132 3130 3132 3133 3132 3130 3129 3125 3122 3121 3119 3115 3110 3105 3099 3093 3088 3081 3077 3074 3073 3071 3069 3066 3064 3062 3061 3058 3057 3056 3054 3052 3049 3046 3043 3041 3040 3037 3035 3033 3030 3027 3025 3021
3128 3128 3129 3131 3127 3127 3128 3122 3119 3117 3113 3109 3104 3098 3092 3085 3081 3077 3075 3074 3072 3071 3069 3068 3066 3065 3063 3062 3062 3058 3055 3052 3048 3045 3043 3040 3039 3038 3035 3034 3030 3028 3024 3020